Weather History for K4O4 - December, 2013

Change the Weather History Date:

Wednesday, December 18, 2013

  Actual Average (KDEQ) Record (KDEQ)
Temperature  
Mean Temperature 52 °F 42 °F  
Max Temperature 68 °F 55 °F 76 °F (1957)
Min Temperature 35 °F 30 °F 11 °F (1964)
Degree Days  
Heating Degree Days 14 23  
Month to date heating degree days 383  
Since 1 July heating degree days 909  
Cooling Degree Days 0 0  
Month to date cooling degree days 0  
Year to date cooling degree days 1941  
Growing Degree Days 2 (Base 50)    
Moisture  
Dew Point 35 °F    
Average Humidity 61    
Maximum Humidity 87    
Minimum Humidity 30    
Precipitation  
Precipitation 0.00 in 0.12 in 1.09 in (1990)
Month to date precipitation 2.21  
Year to date precipitation 46.84  
Snow  
Snow 0.00 in - - ()
Month to date snowfall  
Since 1 July snowfall  
Snow Depth -    
Sea Level Pressure  
Sea Level Pressure 30.18 in    
Wind  
Wind Speed 6 mph (SE)    
Max Wind Speed 15 mph    
Max Gust Speed 18 mph    
Visibility 10 miles    
Events      
T = Trace of Precipitation, MM = Missing Value Source: NWS Daily Summary

Daily Weather History Graph

Daily Weather History Graph

Search for Another Location

Airport or City:

Trip Planner

Search our weather history database for the weather conditions in past years. The results will help you decide how hot, cold, wet, or windy it might be!

Date:

Astronomy

Dec. 18, 2013 Rise Set
Actual Time 7:19 AM CST 5:13 PM CST
Civil Twilight 6:51 AM CST 5:40 PM CST
Nautical Twilight 6:20 AM CST 6:12 PM CST
Astronomical Twilight 5:49 AM CST 6:42 PM CST
Moon 6:42 PM CST (12/18) 8:02 AM CST (12/18)
Length of Visible Light 10h 49m
Length of Day
9h 54m
Full, 98% of the Moon is Illuminated
Dec 18
Full
Dec 25
Last Quarter
Jan 1
New
Jan 7
First Quarter
Jan 15
Full

Hourly Weather History & Observations

Time (CST) Temp. Windchill Dew Point Humidity Pressure Visibility Wind Dir Wind Speed Gust Speed Precip Events Conditions
12:15 AM 37.4 °F 32.8 °F 32.0 °F 81% 30.27 in 10.0 mi ENE 5.8 mph - N/A   Clear
12:35 AM 37.4 °F - 32.0 °F 81% 30.27 in 10.0 mi Calm Calm - N/A   Clear
12:55 AM 37.4 °F 34.9 °F 32.0 °F 81% 30.27 in 10.0 mi NE 3.5 mph - N/A   Clear
1:15 AM 35.6 °F 30.7 °F 32.0 °F 87% 30.26 in 10.0 mi ENE 5.8 mph - N/A   Clear
1:35 AM 35.6 °F 31.7 °F 32.0 °F 87% 30.26 in 10.0 mi NE 4.6 mph - N/A   Clear
1:55 AM 35.6 °F - 32.0 °F 87% 30.26 in 10.0 mi Calm Calm - N/A   Clear
2:15 AM 35.6 °F 32.8 °F 32.0 °F 87% 30.26 in 10.0 mi ENE 3.5 mph - N/A   Clear
2:35 AM 35.6 °F 31.7 °F 32.0 °F 87% 30.26 in 10.0 mi East 4.6 mph - N/A   Clear
2:55 AM 35.6 °F - 32.0 °F 87% 30.26 in 10.0 mi Calm Calm - N/A   Clear
3:15 AM 35.6 °F - 32.0 °F 87% 30.26 in 10.0 mi Calm Calm - N/A   Clear
3:35 AM 35.6 °F 32.8 °F 32.0 °F 87% 30.26 in 10.0 mi East 3.5 mph - N/A   Clear
3:55 AM 37.4 °F 33.8 °F 32.0 °F 81% 30.26 in 10.0 mi East 4.6 mph - N/A   Clear
4:15 AM 37.4 °F 32.8 °F 32.0 °F 81% 30.26 in 10.0 mi East 5.8 mph - N/A   Clear
4:35 AM 37.4 °F 31.4 °F 32.0 °F 81% 30.26 in 10.0 mi East 8.1 mph - N/A   Clear
4:55 AM 37.4 °F 32.1 °F 32.0 °F 81% 30.26 in 10.0 mi East 6.9 mph - N/A   Clear
5:15 AM 37.4 °F 32.1 °F 32.0 °F 81% 30.26 in 10.0 mi East 6.9 mph - N/A   Clear
5:35 AM 37.4 °F 32.8 °F 32.0 °F 81% 30.27 in 10.0 mi East 5.8 mph - N/A   Clear
5:55 AM 37.4 °F 31.4 °F 32.0 °F 81% 30.27 in 10.0 mi East 8.1 mph - N/A   Clear
6:15 AM 37.4 °F 32.1 °F 32.0 °F 81% 30.27 in 10.0 mi East 6.9 mph - N/A   Clear
6:35 AM 37.4 °F 32.1 °F 32.0 °F 81% 30.27 in 10.0 mi East 6.9 mph - N/A   Clear
6:55 AM 37.4 °F 32.1 °F 32.0 °F 81% 30.27 in 10.0 mi East 6.9 mph - N/A   Clear
7:15 AM 37.4 °F 31.4 °F 32.0 °F 81% 30.27 in 10.0 mi East 8.1 mph - N/A   Clear
7:35 AM 37.4 °F 31.4 °F 32.0 °F 81% 30.27 in 10.0 mi East 8.1 mph - N/A   Clear
7:55 AM 37.4 °F 32.8 °F 32.0 °F 81% 30.28 in 10.0 mi East 5.8 mph - N/A   Clear
8:15 AM 41.0 °F 35.2 °F 32.0 °F 70% 30.28 in 10.0 mi East 9.2 mph - N/A   Clear
8:35 AM 42.8 °F 37.5 °F 32.0 °F 66% 30.29 in 10.0 mi East 9.2 mph - N/A   Clear
8:55 AM 42.8 °F 36.6 °F 32.0 °F 66% 30.29 in 10.0 mi East 11.5 mph - N/A   Clear
9:15 AM 44.6 °F 40.7 °F 33.8 °F 66% 30.29 in 10.0 mi East 6.9 mph - N/A   Clear
9:35 AM 48.2 °F - 35.6 °F 62% 30.29 in 10.0 mi East 9.2 mph - N/A   Clear
9:55 AM 48.2 °F - 35.6 °F 62% 30.29 in 10.0 mi ESE 5.8 mph - N/A   Clear
10:15 AM 50.0 °F - 37.4 °F 62% 30.29 in 10.0 mi ESE 4.6 mph - N/A   Clear
10:35 AM 51.8 °F - 37.4 °F 58% 30.28 in 10.0 mi SE 5.8 mph - N/A   Clear
10:55 AM 53.6 °F - 39.2 °F 58% 30.27 in 10.0 mi ESE 4.6 mph - N/A   Clear
11:15 AM 55.4 °F - 39.2 °F 54% 30.26 in 10.0 mi SE 4.6 mph - N/A   Clear
11:35 AM 59.0 °F - 41.0 °F 51% 30.25 in 10.0 mi SSE 3.5 mph - N/A   Clear
11:55 AM 60.8 °F - 39.2 °F 45% 30.23 in 10.0 mi SSE 8.1 mph - N/A   Clear
12:15 PM 60.8 °F - 41.0 °F 48% 30.21 in 10.0 mi SSE 5.8 mph - N/A   Clear
12:35 PM 62.6 °F - 41.0 °F 45% 30.20 in 10.0 mi South 6.9 mph - N/A   Clear
12:55 PM 62.6 °F - 41.0 °F 45% 30.18 in 10.0 mi SSE 8.1 mph - N/A   Clear
1:15 PM 64.4 °F - 41.0 °F 42% 30.17 in 10.0 mi South 8.1 mph - N/A   Clear
1:35 PM 64.4 °F - 41.0 °F 42% 30.15 in 10.0 mi South 11.5 mph 18.4 mph N/A   Clear
1:55 PM 66.2 °F - 37.4 °F 35% 30.14 in 10.0 mi SSW 15.0 mph - N/A   Clear
2:15 PM 66.2 °F - 37.4 °F 35% 30.12 in 10.0 mi South 12.7 mph - N/A   Clear
2:35 PM 66.2 °F - 37.4 °F 35% 30.12 in 10.0 mi SSW 11.5 mph 17.3 mph N/A   Clear
2:55 PM 68.0 °F - 35.6 °F 30% 30.10 in 10.0 mi South 15.0 mph - N/A   Clear
3:15 PM 68.0 °F - 35.6 °F 30% 30.10 in 10.0 mi SSW 13.8 mph - N/A   Clear
3:35 PM 68.0 °F - 37.4 °F 33% 30.10 in 10.0 mi South 10.4 mph - N/A   Clear
3:55 PM 66.2 °F - 35.6 °F 32% 30.09 in 10.0 mi South 11.5 mph - N/A   Clear
4:15 PM 64.4 °F - 35.6 °F 34% 30.09 in 10.0 mi South 12.7 mph - N/A   Clear
4:35 PM 64.4 °F - 35.6 °F 34% 30.08 in 10.0 mi South 10.4 mph - N/A   Clear
4:55 PM 62.6 °F - 35.6 °F 37% 30.08 in 10.0 mi South 9.2 mph - N/A   Clear
5:15 PM 60.8 °F - 35.6 °F 39% 30.07 in 10.0 mi South 8.1 mph - N/A   Clear
5:35 PM 57.2 °F - 35.6 °F 44% 30.07 in 10.0 mi SSE 6.9 mph - N/A   Clear
5:55 PM 55.4 °F - 35.6 °F 47% 30.07 in 10.0 mi SSE 8.1 mph - N/A   Clear
6:15 PM 55.4 °F - 35.6 °F 47% 30.07 in 10.0 mi SSE 8.1 mph - N/A   Clear
6:35 PM 55.4 °F - 35.6 °F 47% 30.07 in 10.0 mi SSE 8.1 mph - N/A   Clear
6:55 PM 53.6 °F - 35.6 °F 51% 30.07 in 10.0 mi SE 6.9 mph - N/A   Clear
7:15 PM 53.6 °F - 37.4 °F 54% 30.06 in 10.0 mi SSE 8.1 mph - N/A   Clear
7:35 PM 53.6 °F - 37.4 °F 54% 30.07 in 10.0 mi SSE 9.2 mph - N/A   Clear
7:55 PM 53.6 °F - 37.4 °F 54% 30.06 in 10.0 mi SSE 10.4 mph - N/A   Clear
8:15 PM 53.6 °F - 37.4 °F 54% 30.06 in 10.0 mi South 10.4 mph - N/A   Clear
8:35 PM 53.6 °F - 37.4 °F 54% 30.06 in 10.0 mi South 10.4 mph - N/A   Clear
8:55 PM 51.8 °F - 37.4 °F 58% 30.07 in 10.0 mi SSE 10.4 mph - N/A   Clear
9:15 PM 53.6 °F - 37.4 °F 54% 30.06 in 10.0 mi SSE 11.5 mph - N/A   Clear
9:35 PM 51.8 °F - 37.4 °F 58% 30.06 in 10.0 mi SSE 9.2 mph - N/A   Clear
9:55 PM 51.8 °F - 37.4 °F 58% 30.06 in 10.0 mi SSE 9.2 mph - N/A   Clear
10:15 PM 51.8 °F - 37.4 °F 58% 30.07 in 10.0 mi SSE 9.2 mph - N/A   Clear
10:35 PM 51.8 °F - 37.4 °F 58% 30.07 in 10.0 mi SSE 8.1 mph - N/A   Clear
10:55 PM 50.0 °F - 37.4 °F 62% 30.07 in 10.0 mi SSE 6.9 mph - N/A   Clear
11:15 PM 50.0 °F - 37.4 °F 62% 30.06 in 10.0 mi SSE 6.9 mph - N/A   Clear
11:35 PM 48.2 °F - 39.2 °F 71% 30.06 in 10.0 mi SSE 8.1 mph - N/A   Clear
11:55 PM 50.0 °F - 39.2 °F 66% 30.05 in 10.0 mi SSE 9.2 mph - N/A   Clear